This demonstration page uses our WeatherBlox Daily Observations layout. Learn more.

Left ArrowRight Arrow

Hourly Observations for May 10, 2018

Temp ( °F °C ) Dew Point ( °F °C ) Humidity (%) Winds ( mph kmh ) Pressure ( in mb ) Visibility ( mi km ) Precip ( " mm )
12:53 am 00:53 Cloudy 54 12.2 32 undefined 43 43 E 22 35 29.88 1012 10 16 N/A
1:53 am 01:53 Cloudy 53 11.7 30 -1.1 41 41 E 23 37 29.88 1012 10 16 N/A
2:53 am 02:53 Cloudy 50 10 32 undefined 50 50 E 25 41 29.88 1012 10 16 N/A
3:53 am 03:53 Cloudy with Light Rain 45 7.2 38 3.3 77 77 E 25 41 29.89 1012 6 10 0.01 0.25
4:50 am 04:50 Cloudy with Rain 43 6 39 4 87 87 E 23 37 29.91 1013 6 10 N/A
4:53 am 04:53 Cloudy with Rain 43 6.1 39 3.9 86 86 E 23 37 29.89 1012 5 8 0.05 1.27
5:53 am 05:53 Cloudy with Light Rain 42 5.6 39 3.9 89 89 E 21 33 29.88 1012 10 16 0.07 1.78
6:53 am 06:53 Cloudy 42 5.6 39 3.9 89 89 E 20 31 29.88 1012 10 16 0.05 1.27
7:43 am 07:43 Cloudy with Light Rain 42 5.6 40 4.4 92 92 NE 9 15 29.94 1014 9 14 N/A
7:53 am 07:53 Cloudy with Light Rain 42 5.6 40 4.4 92 92 NE 12 19 29.91 1013 4 6 0.01 0.25
8:20 am 08:20 Cloudy with Light Rain 43 6 41 5 93 93 E 13 20 29.91 1013 3 4 N/A
8:22 am 08:22 Cloudy with Light Rain 43 6 41 5 93 93 ENE 10 17 29.91 1013 3 5 N/A
8:29 am 08:29 Cloudy with Light Rain 42 5.6 41 5 96 96 E 12 19 29.91 1013 7 11 0.02 0.51
8:53 am 08:53 Cloudy 43 6.1 42 5.6 97 97 E 7 11 29.91 1013 10 16 0.02 0.51
9:10 am 09:10 Cloudy 43 6 43 6 100 100 E 3 6 29.94 1014 10 16 N/A
9:19 am 09:19 Cloudy 44 6.7 42 5.6 93 93 N N/A 29.94 1014 10 16 N/A
9:53 am 09:53 Cloudy 46 7.8 45 7.2 96 96 WNW 7 11 29.92 1013 10 16 0.01 0.25
10:53 am 10:53 Cloudy 50 10 47 8.3 89 89 W 7 11 29.92 1013 10 16 N/A
11:23 am 11:23 Mostly Cloudy 53 11.7 48 8.9 83 83 SW 7 11 29.88 1012 10 16 N/A
11:53 am 11:53 Cloudy 53 11.7 47 8.3 80 80 W 9 15 29.91 1013 10 16 N/A
12:14 pm 12:14 Cloudy 54 12 48 9 82 82 W 12 19 29.88 1012 10 16 N/A
12:53 pm 12:53 Mostly Cloudy 56 13.3 48 8.9 75 75 NW 9 15 29.90 1012 10 16 N/A
1:14 pm 13:14 Partly Cloudy 57 14 48 9 72 72 WNW 8 13 29.85 1011 10 16 N/A
1:33 pm 13:33 Mostly Cloudy 59 15 48 8.9 67 67 VRB 3 6 29.83 1010 10 16 N/A
1:53 pm 13:53 Mostly Cloudy 59 15 48 8.9 67 67 WSW 9 15 29.88 1012 10 16 N/A
2:05 pm 14:05 Mostly Sunny 60 15.6 48 8.9 65 65 W 7 11 29.83 1010 10 16 N/A
2:53 pm 14:53 Mostly Cloudy 61 16.1 46 7.8 58 58 VRB 3 6 29.87 1011 10 16 N/A
3:53 pm 15:53 Sunny 63 17.2 46 7.8 54 54 ENE 3 6 29.84 1011 10 16 N/A
4:53 pm 16:53 Mostly Cloudy 65 18.3 44 6.7 47 47 N N/A 29.83 1010 10 16 N/A
5:53 pm 17:53 Mostly Sunny 65 18.3 48 8.9 54 54 E 13 20 29.82 1010 10 16 N/A
6:32 pm 18:32 Cloudy with Nearby Thunderstorms 63 17 48 9 59 59 E 10 17 29.71 1006 10 16 N/A
6:53 pm 18:53 Cloudy with Nearby Thunderstorms 57 13.9 46 7.8 67 67 N 16 26 29.84 1011 10 16 N/A
7:21 pm 19:21 Mostly Cloudy 56 13.3 46 7.8 70 70 NE 21 33 29.80 1009 10 16 N/A
7:53 pm 19:53 Mostly Sunny 55 12.8 48 8.9 77 77 NE 14 22 29.83 1010 10 16 N/A
8:53 pm 20:53 Mostly Clear 54 12.2 49 9.4 83 83 E 13 20 29.83 1010 10 16 N/A
9:53 pm 21:53 Mostly Cloudy 54 12.2 48 8.9 80 80 ESE 14 22 29.83 1010 10 16 N/A
10:53 pm 22:53 Cloudy 55 12.8 48 8.9 77 77 ESE 7 11 29.82 1010 10 16 N/A
11:53 pm 23:53 Cloudy 52 11.1 50 10 93 93 ENE 10 17 29.83 1010 10 16 N/A

Powered by AerisWeather